WC1Z Weather Reports


Display with metric or nautical units.
time (UTC)temp
F
wind
direction
speed
MPH
gust
MPH
rain 1hr
in
rain 24hr
in
rain mn
in
humidity
%
barometer
mb
20260506025700 77 217 5.0 8.0 0.00 0.00 0.00 85 1009.1
20260506025200 77 171 6.0 10.0 0.00 0.00 0.00 85 1008.9
20260506024701 77 184 5.0 8.0 0.00 0.00 0.00 85 1009.1
20260506024200 77 169 4.0 8.0 0.00 0.00 0.00 85 1008.9
20260506023701 77 165 4.0 6.0 0.00 0.00 0.00 85 1008.8
20260506023200 77 189 4.0 4.0 0.00 0.00 0.00 85 1008.7
20260506022700 77 172 5.0 8.0 0.00 0.00 0.00 85 1008.6
20260506022200 77 183 3.0 6.0 0.00 0.00 0.00 85 1008.6
20260506021701 77 175 3.0 6.0 0.00 0.00 0.00 85 1008.4
20260506021200 77 173 6.0 11.0 0.00 0.00 0.00 85 1008.4
20260506020700 77 167 8.0 11.0 0.00 0.00 0.00 85 1008.3
20260506020200 77 162 5.0 8.0 0.00 0.00 0.00 85 1008.3
20260506015700 77 184 4.0 5.0 0.00 0.00 0.00 85 1008.3
20260506015200 77 170 2.0 5.0 0.00 0.00 0.00 85 1008.2
20260506014700 77 178 3.0 5.0 0.00 0.00 0.00 85 1008.1
20260506014200 77 171 4.0 6.0 0.00 0.00 0.00 85 1008.0
20260506013701 77 168 4.0 5.0 0.00 0.00 0.00 84 1008.0
20260506013200 77 157 3.0 9.0 0.00 0.00 0.00 84 1007.9
20260506012702 77 173 4.0 7.0 0.00 0.00 0.00 84 1007.7
20260506012200 77 160 6.0 8.0 0.00 0.00 0.00 84 1007.7
20260506011703 78 168 5.0 6.0 0.00 0.00 0.00 83 1007.8
20260506011201 78 167 5.0 8.0 0.00 0.00 0.00 83 1007.6
20260506010701 78 182 4.0 7.0 0.00 0.00 0.00 83 1007.5
20260506010202 78 165 5.0 8.0 0.00 0.00 0.00 83 1007.5
20260506005700 78 213 2.0 5.0 0.00 0.00 0.00 83 1007.4
20260506005200 78 197 4.0 6.0 0.00 0.00 0.00 82 1007.5
20260506004700 78 174 4.0 6.0 0.00 0.00 0.00 82 1007.4
20260506004201 78 180 4.0 9.0 0.00 0.00 0.00 82 1007.3
20260506003700 78 179 2.0 5.0 0.00 0.00 0.00 81 1007.2
20260506003202 79 216 4.0 6.0 0.00 0.00 0.00 81 1007.1
20260506002701 79 197 3.0 5.0 0.00 0.00 0.00 81 1007.2
20260506002200 79 162 6.0 8.0 0.00 0.00 0.00 81 1007.2
20260506001701 79 176 6.0 11.0 0.00 0.00 0.00 80 1007.3
20260506001201 79 162 6.0 8.0 0.00 0.00 0.00 80 1007.3
20260506000700 79 167 5.0 8.0 0.00 0.00 0.00 80 1007.4
20260506000200 80 183 4.0 6.0 0.00 0.00 0.00 80 1007.3
20260505235701 80 170 4.0 6.0 0.00 0.00 0.00 80 1007.3
20260505235201 80 177 3.0 5.0 0.00 0.00 0.00 80 1007.3
20260505234701 80 170 3.0 7.0 0.00 0.00 0.00 79 1007.4
20260505234200 80 175 10.0 13.0 0.00 0.00 0.00 79 1007.4
20260505233700 80 202 2.0 6.0 0.00 0.00 0.00 79 1007.4
20260505233201 80 190 3.0 8.0 0.00 0.00 0.00 79 1007.5
20260505232700 80 179 6.0 12.0 0.00 0.00 0.00 79 1007.4
20260505232200 80 188 3.0 4.0 0.00 0.00 0.00 79 1007.4
20260505231701 81 169 4.0 7.0 0.00 0.00 0.00 78 1007.4
20260505231201 81 164 5.0 8.0 0.00 0.00 0.00 77 1007.5
20260505230700 81 179 3.0 4.0 0.00 0.00 0.00 77 1007.6
20260505230200 80 177 1.0 3.0 0.00 0.00 0.00 77 1007.6
20260505225700 81 218 3.0 5.0 0.00 0.00 0.00 77 1007.7
20260505225200 81 217 3.0 5.0 0.00 0.00 0.00 77 1007.7
20260505224700 81 228 5.0 7.0 0.00 0.00 0.00 76 1007.7
20260505224200 81 185 2.0 5.0 0.00 0.00 0.00 76 1007.7
20260505223701 81 191 4.0 7.0 0.00 0.00 0.00 76 1007.6
20260505223200 81 225 4.0 8.0 0.00 0.00 0.00 75 1007.6
20260505222701 81 211 3.0 4.0 0.00 0.00 0.00 75 1007.5
20260505222201 81 223 3.0 6.0 0.00 0.00 0.00 75 1007.4
20260505221702 81 212 4.0 6.0 0.00 0.00 0.00 76 1007.5
20260505221200 81 208 3.0 6.0 0.00 0.00 0.00 76 1007.4
20260505220700 81 224 6.0 10.0 0.00 0.00 0.00 75 1007.4
20260505220200 81 186 4.0 6.0 0.00 0.00 0.00 75 1007.4
20260505215701 81 178 7.0 10.0 0.00 0.00 0.00 76 1007.3
20260505215200 81 174 8.0 13.0 0.00 0.00 0.00 75 1007.3
20260505214701 82 172 5.0 7.0 0.00 0.00 0.00 75 1007.4
20260505214200 82 170 6.0 11.0 0.00 0.00 0.00 74 1007.4
20260505213700 81 220 8.0 11.0 0.00 0.00 0.00 74 1007.4
20260505213200 81 202 6.0 8.0 0.00 0.00 0.00 74 1007.4
20260505212702 82 194 7.0 15.0 0.00 0.00 0.00 74 1007.6
20260505212200 82 223 5.0 8.0 0.00 0.00 0.00 75 1007.6
20260505211700 82 232 7.0 10.0 0.00 0.00 0.00 75 1007.6
20260505211200 81 218 6.0 8.0 0.00 0.00 0.00 75 1007.6
20260505210701 81 183 6.0 11.0 0.00 0.00 0.00 76 1007.7
20260505210200 82 233 8.0 10.0 0.00 0.00 0.00 74 1007.7
20260505205701 81 205 5.0 9.0 0.00 0.00 0.00 74 1007.7
20260505205201 81 223 6.0 10.0 0.00 0.00 0.00 75 1007.8
20260505204701 81 177 5.0 9.0 0.00 0.00 0.00 76 1008.0
20260505204200 81 231 5.0 10.0 0.00 0.00 0.00 75 1008.0
20260505203701 81 196 6.0 9.0 0.00 0.00 0.00 75 1008.1
20260505203200 81 220 7.0 11.0 0.00 0.00 0.00 75 1008.1
20260505202700 80 226 6.0 10.0 0.00 0.00 0.00 77 1008.1
20260505202200 80 226 6.0 8.0 0.00 0.00 0.00 77 1008.3
20260505201700 80 223 4.0 9.0 0.00 0.00 0.00 78 1008.3
20260505201200 80 206 5.0 12.0 0.00 0.00 0.00 77 1008.3
20260505200700 80 218 8.0 11.0 0.00 0.00 0.00 77 1008.3
20260505200200 80 206 4.0 9.0 0.00 0.00 0.00 78 1008.3
20260505195703 80 201 4.0 9.0 0.00 0.00 0.00 78 1008.3
20260505195200 80 222 5.0 7.0 0.00 0.00 0.00 78 1008.4
20260505194700 79 223 6.0 10.0 0.00 0.00 0.00 79 1008.5
20260505194202 79 209 5.0 8.0 0.00 0.00 0.00 79 1008.6
20260505193700 79 224 6.0 10.0 0.00 0.00 0.00 79 1008.7
20260505193201 79 203 4.0 6.0 0.00 0.00 0.00 80 1008.8
20260505192700 79 175 8.0 12.0 0.00 0.00 0.00 79 1008.8
20260505192201 79 230 9.0 13.0 0.00 0.00 0.00 78 1008.8
20260505191700 79 199 4.0 6.0 0.00 0.00 0.00 79 1008.7
20260505191201 79 193 4.0 6.0 0.00 0.00 0.00 79 1008.8
20260505190701 79 217 7.0 13.0 0.00 0.00 0.00 78 1008.9
20260505190201 79 172 9.0 14.0 0.00 0.00 0.00 79 1008.7
20260505185703 78 207 8.0 13.0 0.00 0.00 0.00 79 1008.9
20260505185200 78 223 7.0 11.0 0.00 0.00 0.00 79 1009.2
20260505184700 78 195 3.0 7.0 0.00 0.00 0.00 81 1009.2
20260505184202 78 216 5.0 8.0 0.00 0.00 0.00 81 1009.2
20260505183700 78 216 3.0 6.0 0.00 0.00 0.00 81 1009.1
20260505183201 77 199 4.0 8.0 0.00 0.00 0.00 81 1009.2
20260505182701 77 236 5.0 7.0 0.00 0.00 0.00 81 1009.2
20260505182201 77 186 5.0 8.0 0.00 0.00 0.00 82 1009.3
20260505181701 77 211 6.0 9.0 0.00 0.00 0.00 82 1009.4
20260505181202 77 217 7.0 9.0 0.00 0.00 0.00 81 1009.3
20260505180701 77 187 6.0 9.0 0.00 0.00 0.00 81 1009.3
20260505180200 77 232 7.0 11.0 0.00 0.00 0.00 81 1009.4
20260505175703 77 214 4.0 8.0 0.00 0.00 0.00 82 1009.3
20260505175200 76 177 2.0 5.0 0.00 0.00 0.00 83 1009.4
20260505174700 76 217 5.0 7.0 0.00 0.00 0.00 82 1009.5
20260505174204 76 211 3.0 4.0 0.00 0.00 0.00 83 1009.5
20260505173700 76 230 4.0 7.0 0.00 0.00 0.00 83 1009.6
20260505173204 76 227 6.0 12.0 0.00 0.00 0.00 83 1009.6
20260505172705 75 216 5.0 12.0 0.00 0.00 0.00 83 1009.7
20260505172200 75 180 6.0 9.0 0.00 0.00 0.00 83 1009.6
20260505171700 75 181 6.0 9.0 0.00 0.00 0.00 83 1009.7
20260505171201 75 230 3.0 6.0 0.00 0.00 0.00 83 1009.6
20260505170701 75 220 2.0 4.0 0.00 0.00 0.00 83 1009.6
20260505170200 75 182 3.0 6.0 0.00 0.00 0.00 83 1009.7
20260505165701 75 193 3.0 5.0 0.00 0.00 0.00 83 1009.6
20260505165203 75 201 5.0 7.0 0.00 0.00 0.00 84 1009.7
20260505164701 74 225 4.0 6.0 0.00 0.00 0.00 84 1009.8
20260505164200 74 213 1.0 4.0 0.00 0.00 0.00 84 1009.8
20260505163701 74 218 4.0 8.0 0.00 0.00 0.00 83 1009.9
20260505163200 74 207 2.0 3.0 0.00 0.00 0.00 84 1010.0
20260505162700 74 204 4.0 9.0 0.00 0.00 0.00 84 1010.0
20260505162203 74 235 4.0 7.0 0.00 0.00 0.00 84 1009.9
20260505161701 74 224 4.0 8.0 0.00 0.00 0.00 84 1009.8
20260505161201 74 206 4.0 6.0 0.00 0.00 0.00 84 1009.6
20260505160701 73 215 4.0 6.0 0.00 0.00 0.00 85 1009.7
20260505160200 73 209 4.0 7.0 0.00 0.00 0.00 84 1009.8
20260505153200 73 227 2.0 4.0 0.00 0.00 0.00 84 1009.6
20260505152708 73 224 6.0 9.0 0.00 0.00 0.00 84 1009.7
20260505152202 73 171 5.0 9.0 0.00 0.00 0.00 84 1009.6
20260505151701 73 216 5.0 8.0 0.00 0.00 0.00 85 1009.6
20260505151201 73 185 6.0 9.0 0.00 0.00 0.00 85 1009.6
20260505150701 72 204 5.0 8.0 0.00 0.00 0.00 86 1009.7
20260505150200 72 169 4.0 8.0 0.00 0.00 0.00 87 1009.7
20260505140200 71 231 7.0 11.0 0.00 0.00 0.00 86 1009.7
20260505130200 70 181 4.0 7.0 0.00 0.00 0.00 87 1009.6
20260505124700 70 211 4.0 7.0 0.00 0.00 0.00 87 1009.2
20260505124201 70 156 2.0 5.0 0.00 0.00 0.00 87 1009.1
20260505123700 70 191 4.0 5.0 0.00 0.00 0.00 87 1009.2
20260505123201 70 170 3.0 5.0 0.00 0.00 0.00 87 1009.1
20260505122700 70 192 2.0 5.0 0.00 0.00 0.00 87 1009.1
20260505122200 70 234 6.0 7.0 0.00 0.00 0.00 87 1009.1
20260505121701 70 199 6.0 8.0 0.00 0.00 0.00 87 1009.1
20260505121201 70 185 5.0 7.0 0.00 0.00 0.00 87 1009.1
20260505120701 69 191 3.0 5.0 0.00 0.00 0.00 87 1008.8
20260505120200 69 187 3.0 5.0 0.00 0.00 0.00 87 1008.7
20260505115700 69 169 5.0 9.0 0.00 0.00 0.00 87 1008.7
20260505115202 69 185 3.0 7.0 0.00 0.00 0.00 87 1008.8
20260505114701 69 154 4.0 6.0 0.00 0.00 0.00 87 1008.9
20260505114200 69 169 4.0 11.0 0.00 0.00 0.00 87 1008.8
20260505113701 69 188 5.0 8.0 0.00 0.00 0.00 87 1008.9
20260505113200 69 169 5.0 6.0 0.00 0.00 0.00 87 1009.1
20260505112700 69 162 5.0 6.0 0.00 0.00 0.00 87 1008.8
20260505112200 69 211 1.0 3.0 0.00 0.00 0.00 87 1008.7
20260505111700 69 165 2.0 5.0 0.00 0.00 0.00 87 1008.8
20260505111201 68 169 3.0 5.0 0.00 0.00 0.00 87 1008.7
20260505110702 68 163 6.0 10.0 0.00 0.00 0.00 87 1008.6
20260505110201 68 181 3.0 6.0 0.00 0.00 0.00 87 1008.6
20260505102202 68 157 4.0 6.0 0.00 0.00 0.00 87 1008.6
20260505101701 68 154 4.0 4.0 0.00 0.00 0.00 87 1008.7
20260505101201 68 158 4.0 6.0 0.00 0.00 0.00 87 1008.7
20260505100700 68 161 5.0 7.0 0.00 0.00 0.00 87 1008.7
20260505100201 68 154 6.0 8.0 0.00 0.00 0.00 87 1008.8
20260505095700 67 153 5.0 6.0 0.00 0.00 0.00 87 1008.9
20260505095200 67 158 4.0 6.0 0.00 0.00 0.00 87 1009.1
20260505094700 67 158 6.0 9.0 0.00 0.00 0.00 87 1009.1
20260505094200 67 160 5.0 6.0 0.00 0.00 0.00 86 1009.2
20260505093700 67 182 3.0 5.0 0.00 0.00 0.00 86 1009.3
20260505093201 67 161 4.0 8.0 0.00 0.00 0.00 86 1009.4
20260505092701 67 159 4.0 6.0 0.00 0.00 0.00 86 1009.4
20260505092200 67 153 5.0 6.0 0.00 0.00 0.00 87 1009.5
20260505091701 67 166 2.0 3.0 0.00 0.00 0.00 86 1009.6
20260505091200 67 158 2.0 3.0 0.00 0.00 0.00 86 1009.6
20260505090701 67 161 6.0 8.0 0.00 0.00 0.00 86 1009.5
20260505090203 67 175 4.0 6.0 0.00 0.00 0.00 86 1009.5
20260505085700 67 183 2.0 8.0 0.00 0.00 0.00 85 1009.4
20260505085200 68 170 4.0 5.0 0.00 0.00 0.00 85 1009.3
20260505084701 68 175 3.0 6.0 0.00 0.00 0.00 85 1009.3
20260505084201 68 158 8.0 11.0 0.00 0.00 0.00 85 1009.4
20260505083700 67 166 4.0 6.0 0.00 0.00 0.00 85 1009.4
20260505083200 67 180 4.0 5.0 0.00 0.00 0.00 85 1009.4
20260505082700 67 184 2.0 5.0 0.00 0.00 0.00 85 1009.4
20260505082201 67 166 2.0 4.0 0.00 0.00 0.00 85 1009.4
20260505081701 67 164 2.0 4.0 0.00 0.00 0.00 85 1009.6
20260505081200 67 184 2.0 3.0 0.00 0.00 0.00 85 1009.5
20260505080701 67 222 3.0 5.0 0.00 0.00 0.00 85 1009.7
20260505080201 67 191 2.0 4.0 0.00 0.00 0.00 85 1009.7
20260505075701 67 160 7.0 8.0 0.00 0.00 0.00 85 1009.8
20260505075200 67 127 1.0 2.0 0.00 0.00 0.00 85 1009.8
20260505074701 67 170 4.0 6.0 0.00 0.00 0.00 85 1010.0
20260505074201 67 163 1.0 4.0 0.00 0.00 0.00 85 1010.0
20260505073700 67 156 2.0 4.0 0.00 0.00 0.00 85 1009.9
20260505073200 67 155 4.0 5.0 0.00 0.00 0.00 85 1009.9
20260505072701 67 176 1.0 3.0 0.00 0.00 0.00 85 1009.9
20260505072200 67 153 2.0 3.0 0.00 0.00 0.00 85 1009.9
20260505071701 67 171 3.0 5.0 0.00 0.00 0.00 84 1009.9
20260505071201 67 179 3.0 6.0 0.00 0.00 0.00 84 1009.9
20260505070700 67 170 2.0 5.0 0.00 0.00 0.00 84 1009.9
20260505070201 67 173 4.0 7.0 0.00 0.00 0.00 84 1010.0
20260505065701 67 157 5.0 6.0 0.00 0.00 0.00 84 1010.0
20260505065200 67 177 4.0 6.0 0.00 0.00 0.00 83 1010.1
20260505064700 67 188 2.0 3.0 0.00 0.00 0.00 83 1010.3
20260505064201 68 164 2.0 4.0 0.00 0.00 0.00 83 1010.4
20260505063701 68 157 4.0 6.0 0.00 0.00 0.00 83 1010.3
20260505063201 68 165 6.0 7.0 0.00 0.00 0.00 83 1010.5
20260505062701 68 169 6.0 7.0 0.00 0.00 0.00 82 1010.5
20260505062200 68 157 2.0 4.0 0.00 0.00 0.00 82 1010.4
20260505061700 68 165 7.0 10.0 0.00 0.00 0.00 82 1010.5
20260505061201 68 166 4.0 6.0 0.00 0.00 0.00 82 1010.6
20260505060700 68 161 5.0 7.0 0.00 0.00 0.00 81 1010.6
20260505060200 68 171 5.0 7.0 0.00 0.00 0.00 81 1010.7
20260505055700 68 165 4.0 7.0 0.00 0.00 0.00 81 1010.6
20260505055201 68 174 3.0 6.0 0.00 0.00 0.00 81 1010.6
20260505054700 68 166 7.0 9.0 0.00 0.00 0.00 81 1010.7
20260505054200 68 164 6.0 8.0 0.00 0.00 0.00 81 1010.7
20260505053700 68 167 5.0 9.0 0.00 0.00 0.00 80 1010.6
20260505053200 68 180 7.0 10.0 0.00 0.00 0.00 80 1010.7
20260505052701 68 169 3.0 6.0 0.00 0.00 0.00 80 1010.8
20260505052201 68 174 5.0 8.0 0.00 0.00 0.00 80 1010.8
20260505051710 69 189 5.0 9.0 0.00 0.00 0.00 79 1010.9
20260505051200 69 173 2.0 7.0 0.00 0.00 0.00 79 1010.9
20260505050701 69 168 7.0 10.0 0.00 0.00 0.00 79 1010.8
20260505050200 69 164 2.0 4.0 0.00 0.00 0.00 79 1011.0
20260505041700 69 159 3.0 4.0 0.00 0.00 0.00 78 1011.1
20260505041205 69 172 3.0 4.0 0.00 0.00 0.00 78 1011.2
20260505040700 69 206 2.0 3.0 0.00 0.00 0.00 77 1011.1
20260505040200 69 207 3.0 5.0 0.00 0.00 0.00 77 1011.0
20260505035700 69 167 4.0 5.0 0.00 0.00 0.00 77 1011.0
20260505035201 69 147 2.0 5.0 0.00 0.00 0.00 77 1011.0
20260505034700 69 155 5.0 9.0 0.00 0.00 0.00 76 1011.1
20260505034201 69 166 5.0 7.0 0.00 0.00 0.00 76 1011.1
20260505033701 69 173 3.0 5.0 0.00 0.00 0.00 76 1011.1
20260505033200 69 163 7.0 10.0 0.00 0.00 0.00 76 1011.1
20260505032701 69 161 6.0 8.0 0.00 0.00 0.00 75 1011.1
20260505032200 69 149 4.0 6.0 0.00 0.00 0.00 75 1011.1
20260505031700 70 150 3.0 4.0 0.00 0.00 0.00 74 1011.1
20260505031200 70 163 6.0 7.0 0.00 0.00 0.00 74 1011.1
20260505030700 70 158 5.0 7.0 0.00 0.00 0.00 73 1011.2
20260505030201 70 170 6.0 9.0 0.00 0.00 0.00 73 1011.2